Theta_e
308 302 298 302 304 304 304 303 302 306 310 307 305 305 308 311 312 312 313 314 316 324 328 330 334 339 344 344 349 363 365 370 369 360 355 355 354 356 357 356 360 361 353 354
304 301 306 307 306 305 304 302 302 306 308 307 305 304 308 310 311 312 312 313 315 322 326 329 333 340 343 349 352 359 364 370 366 365 362 359 358 357 357 359 360 358 356 354
302 305 309 307 305 304 303 301 302 302 306 307 305 302 305 308 310 312 314 319 320 321 324 329 334 339 341 345 351 353 357 369 368 366 368 367 366 365 358 355 351 353 353 351
305 308 306 305 303 305 300 305 304 303 301 296 305 294 304 306 308 311 314 317 319 322 325 331 335 338 340 344 351 356 355 357 365 370 362 359 354 351 353 355 351 352 352 350
303 305 304 303 305 307 302 306 304 304 301 300 300 297 301 308 306 309 312 315 319 323 327 330 331 334 337 342 345 350 352 355 357 358 365 360 359 357 358 356 356 352 351 351
305 310 308 307 308 308 308 305 304 304 301 294 299 298 299 303 307 309 313 318 321 323 325 328 330 332 333 335 339 342 344 347 351 352 353 355 358 355 355 353 353 351 352 350
304 304 308 310 305 307 305 301 293 292 293 292 301 298 301 309 311 312 315 318 321 322 322 321 324 327 329 330 331 333 337 338 342 346 347 349 349 354 354 353 352 349 348 350
296 294 302 306 305 302 302 301 293 288 290 293 302 295 302 315 317 319 319 320 320 321 319 318 321 323 324 326 330 333 333 333 336 338 341 345 346 345 349 348 351 352 352 352
296 297 306 306 305 304 301 297 303 296 297 293 297 303 310 315 315 316 316 316 317 320 317 316 317 318 318 324 329 334 335 335 335 337 338 339 342 343 340 345 349 351 356 352
301 294 303 305 307 304 301 303 295 296 287 286 293 295 297 301 306 307 305 312 314 315 315 316 317 319 320 321 325 326 328 334 335 337 337 336 338 343 344 342 340 346 349 348
302 298 298 303 300 298 300 297 299 299 296 289 288 293 306 305 306 304 306 307 308 312 313 314 314 315 316 317 317 322 323 325 329 333 337 336 336 338 342 342 343 340 341 343
302 299 294 297 303 306 304 301 300 293 293 296 295 295 309 309 307 306 306 307 309 309 309 310 311 312 312 313 314 316 320 320 322 325 327 336 335 337 339 338 342 344 337 338
300 297 291 293 298 303 298 300 301 301 301 293 290 292 307 308 306 307 306 306 308 310 310 310 311 310 311 311 313 313 316 317 319 322 322 325 335 334 334 335 337 341 342 335
302 296 293 288 292 295 293 295 298 297 293 294 294 296 300 303 303 304 305 307 307 308 308 308 309 310 310 312 312 312 313 315 317 319 320 323 325 332 334 333 333 332 335 340
300 292 295 296 296 297 296 295 295 294 295 292 294 295 299 303 304 306 306 306 305 305 306 307 308 308 309 311 313 313 312 314 316 317 318 321 326 325 332 331 329 331 333 332
304 293 295 293 296 296 294 295 295 295 295 295 296 295 303 304 306 303 303 303 303 304 305 307 307 308 308 309 311 313 313 314 315 314 315 319 322 323 327 328 329 328 330 331
298 296 293 289 295 294 290 294 295 295 296 296 292 297 301 300 300 302 303 304 304 305 306 306 307 308 310 310 312 312 313 314 314 314 314 315 318 319 320 327 325 327 329 331
296 295 294 289 292 283 294 299 297 294 296 297 298 299 300 301 303 303 304 305 306 306 306 307 307 310 310 310 311 312 312 312 312 312 313 314 315 317 319 320 322 326 329 330
299 295 290 287 287 291 294 296 294 293 294 298 297 299 301 303 303 304 307 307 306 307 308 309 309 309 310 309 310 310 310 311 311 310 312 313 314 315 318 319 324 321 324 325
298 299 292 289 284 282 294 297 300 299 290 302 302 301 301 302 295 299 305 306 307 308 308 309 307 307 309 310 311 308 307 307 307 309 310 313 314 315 315 317 321 326 319 322
291 292 290 289 287 290 298 300 301 287 293 302 303 303 301 299 301 306 307 306 307 307 307 309 308 307 308 310 309 306 307 306 309 310 311 312 313 315 316 316 318 321 322 320
292 289 288 290 287 284 301 300 293 302 304 303 303 303 302 303 304 304 305 305 305 305 305 306 306 306 308 310 309 307 307 310 310 310 310 310 311 312 312 313 316 318 319 318
291 296 293 294 292 303 305 304 307 306 303 302 303 304 304 303 303 304 303 304 304 305 305 306 304 304 307 308 311 309 310 312 310 311 309 312 312 312 313 312 311 313 316 317
298 300 298 295 297 300 304 305 306 305 303 304 305 304 304 302 303 303 303 302 303 304 304 305 304 303 304 309 308 309 311 312 311 311 311 312 312 311 313 312 311 311 313 313
296 297 295 296 298 301 302 304 305 305 305 305 304 304 303 302 302 302 301 303 303 303 303 303 304 304 305 307 309 311 311 311 311 311 311 312 312 312 311 312 312 312 314 311
297 295 296 294 300 300 302 304 305 303 303 304 303 303 303 303 301 302 301 302 303 303 302 302 303 304 307 307 308 310 311 311 311 310 309 310 310 311 312 311 311 301 300 299
Wind_Speed
15 13 16 18 20 21 21 24 22 17 12 13 13 14 14 15 10 12 12 11 9 15 14 9 8 7 8 5 4 7 7 6 5 8 8 6 7 6 5 6 3 0 8 7
14 17 18 18 20 20 22 22 22 16 19 10 8 13 15 16 12 14 12 13 12 15 14 9 7 7 7 5 4 3 5 6 6 4 6 7 6 5 5 5 5 4 4 6
19 18 20 22 19 21 21 16 16 17 19 18 16 14 18 20 16 12 10 10 11 10 10 9 9 7 6 4 4 4 3 4 6 6 4 3 1 3 4 5 6 6 6 5
19 20 22 22 15 16 21 15 19 18 18 15 13 14 18 21 16 14 11 9 8 9 6 9 11 9 6 9 11 13 4 3 5 5 5 5 6 7 6 6 8 8 8 7
20 21 21 24 22 18 19 17 17 20 16 18 22 14 16 16 19 18 12 9 10 11 12 14 13 11 10 11 14 12 15 17 14 4 5 4 5 5 4 6 9 10 10 10
22 24 24 24 23 20 14 19 17 17 15 15 20 19 17 14 15 20 17 13 10 14 14 13 12 11 12 13 13 11 11 10 13 13 10 2 5 5 6 5 2 8 8 8
18 22 24 24 16 16 11 9 10 14 15 15 17 18 15 3 5 23 21 15 11 12 15 10 9 13 13 14 13 12 12 13 12 9 10 10 8 8 7 6 4 4 5 9
15 19 16 15 17 17 14 13 12 18 14 14 8 9 4 17 18 21 18 12 12 12 14 12 7 12 13 12 10 11 12 12 11 10 9 6 6 5 6 6 7 6 4 3
12 16 17 4 4 17 14 17 14 9 15 15 15 7 11 10 12 10 13 12 10 11 10 13 9 10 10 12 9 8 9 10 10 10 9 9 8 5 5 8 7 6 5 2
11 18 21 15 12 16 17 16 10 7 5 13 16 11 7 8 17 14 22 6 9 5 9 7 11 8 7 9 10 9 9 7 8 7 7 8 9 8 6 3 6 7 7 2
14 14 21 9 9 11 13 16 16 13 8 5 12 4 3 14 11 11 14 14 16 6 10 9 7 8 11 11 12 10 9 9 8 7 5 7 7 8 7 6 3 4 5 6
12 9 14 22 12 14 17 13 4 6 11 7 7 4 6 10 12 15 10 1 9 9 10 9 10 10 10 11 10 9 8 7 9 8 8 5 6 6 6 7 6 3 4 5
10 5 8 13 15 2 8 11 17 14 7 13 4 1 4 5 12 10 13 15 15 3 7 6 8 10 10 10 9 10 9 10 9 7 8 8 4 5 6 7 7 7 3 1
2 8 13 12 5 3 10 17 17 10 12 14 12 9 11 11 10 4 3 3 3 5 4 4 4 6 9 9 9 10 10 10 10 9 9 7 9 6 2 4 6 7 9 1
4 13 14 18 20 11 19 13 13 14 13 12 13 6 3 5 8 7 5 3 7 4 6 6 7 9 10 11 9 9 10 11 10 9 9 8 7 8 3 3 5 5 5 6
7 11 14 17 18 16 18 16 9 15 14 16 12 12 14 7 11 11 6 6 4 4 6 9 11 12 12 12 11 10 10 9 11 12 11 10 9 9 8 3 3 5 4 4
10 8 10 13 16 13 12 10 11 12 12 13 12 8 7 4 4 2 5 8 8 7 10 9 10 10 9 10 10 9 10 10 10 11 13 12 11 10 9 5 4 3 3 6
13 10 8 12 13 12 10 2 4 9 11 12 12 4 3 3 8 5 8 12 12 11 10 9 10 9 12 14 14 13 13 10 11 11 11 12 13 12 10 6 9 5 2 3
12 9 8 4 9 12 12 8 4 5 10 6 2 9 12 10 2 12 14 11 8 8 9 9 10 10 11 12 12 12 13 14 13 13 12 11 13 14 12 9 2 3 7 5
12 11 8 10 5 5 6 2 6 4 1 17 15 13 10 4 4 7 5 8 7 8 9 10 12 12 11 12 8 9 12 13 13 14 15 15 12 12 13 12 10 4 6 11
7 10 9 9 7 6 5 4 4 7 5 4 11 10 9 7 7 10 10 9 10 12 12 12 10 10 9 8 7 8 10 11 11 12 13 14 14 13 10 12 11 9 6 8
7 6 9 10 9 9 4 10 4 5 5 7 5 7 8 9 10 12 12 12 13 13 12 12 8 9 9 10 10 10 11 11 10 12 11 11 14 12 11 14 11 10 9 9
2 7 3 5 2 7 2 6 6 1 4 4 8 8 9 9 11 13 13 12 10 12 12 8 8 9 11 12 9 10 10 11 10 11 10 11 13 13 11 11 12 10 10 9
5 10 4 7 6 6 7 8 7 2 0 1 6 7 10 11 12 12 9 7 10 12 10 7 6 9 12 12 10 12 12 9 12 12 12 11 11 12 11 9 9 8 8 9
8 3 10 8 5 4 7 9 11 9 5 9 9 7 7 8 10 10 9 10 9 10 7 7 9 10 10 11 11 13 10 10 12 10 10 10 8 10 9 8 8 8 8 6
11 10 4 5 7 3 4 2 4 5 7 6 7 10 10 12 12 14 12 12 10 10 8 10 10 13 13 10 12 11 9 8 9 9 8 8 8 9 7 8 9 4 4 6
Wind_Direction
229 239 239 236 236 252 269 279 288 294 238 182 216 258 240 251 191 206 210 235 234 109 102 69 51 45 68 18 335 159 161 162 150 158 177 209 202 218 211 220 113 202 179 168
245 238 251 257 257 253 254 257 272 281 288 284 228 244 264 266 233 214 219 226 211 120 107 91 75 53 56 42 23 38 163 150 181 189 184 196 210 219 215 166 160 188 176 174
252 253 245 234 250 267 253 273 270 267 271 264 248 261 258 252 241 230 192 39 95 93 93 114 93 65 43 59 69 101 349 177 172 212 207 194 306 228 216 167 175 184 195 205
253 262 262 270 248 260 268 240 260 263 275 263 205 250 241 235 210 203 146 142 128 116 122 97 81 65 75 54 41 26 92 309 167 177 251 228 207 229 249 199 169 176 192 198
259 266 257 263 259 253 259 275 264 264 242 268 272 257 270 235 208 168 173 175 134 119 88 81 72 57 47 56 49 32 37 32 17 146 235 248 235 238 246 257 168 178 182 198
271 278 272 269 265 252 256 262 255 262 273 240 248 261 267 242 211 160 158 138 142 118 100 99 99 82 53 53 71 48 45 46 36 27 7 286 304 320 321 324 286 177 168 188
261 248 255 255 260 256 239 242 252 247 237 249 245 246 252 29 239 168 140 140 130 132 113 98 88 90 67 58 50 64 47 42 37 35 36 18 357 332 302 308 301 306 219 187
300 295 339 3 274 230 226 230 237 254 261 262 284 331 350 50 81 109 117 139 141 142 108 105 79 94 99 78 63 50 60 49 40 33 36 24 55 19 347 332 311 306 295 262
314 295 348 235 227 309 274 258 240 272 291 280 271 138 94 67 68 85 114 135 129 104 108 116 93 76 72 90 70 65 84 75 48 38 26 20 24 63 9 353 330 320 301 286
314 304 307 287 202 242 284 308 276 144 243 266 273 163 215 329 352 17 8 93 103 123 128 87 97 53 60 73 93 49 23 72 74 52 50 23 6 28 20 352 344 354 335 327
311 287 281 288 255 271 238 220 240 262 147 254 279 305 33 167 164 60 30 8 341 25 41 47 52 63 34 33 23 36 22 359 36 29 47 48 12 7 7 12 347 337 337 310
340 300 291 290 230 205 300 315 172 294 265 13 311 312 347 102 125 127 157 275 353 351 23 25 24 46 34 25 22 27 1 5 13 4 0 37 24 358 5 355 359 9 342 345
354 316 305 297 264 55 330 286 270 291 242 221 226 170 30 180 176 170 164 174 196 169 91 353 16 9 19 14 6 2 349 2 354 358 346 336 351 8 356 355 348 352 15 320
359 275 279 285 272 185 276 313 315 261 234 263 257 295 136 227 239 191 322 299 321 26 356 356 11 358 1 351 354 348 341 352 340 339 333 328 320 317 342 5 343 354 348 40
232 270 283 287 287 226 233 239 256 279 282 276 282 294 305 247 243 230 179 268 287 303 323 350 18 8 353 346 340 336 343 333 328 333 319 308 300 305 313 7 331 333 337 343
322 286 284 288 288 271 287 272 267 275 273 273 281 288 119 242 191 171 217 263 268 333 329 27 13 354 337 331 335 336 318 323 328 322 306 303 300 295 284 235 267 303 334 340
268 290 291 283 287 318 274 295 307 280 255 272 261 269 25 23 58 348 9 354 322 357 34 10 348 335 330 322 309 315 322 315 307 309 308 302 303 292 293 259 272 298 344 311
265 264 279 289 290 273 268 255 326 308 298 292 289 268 167 211 91 46 353 37 30 14 358 340 325 331 336 336 328 328 319 304 300 296 301 305 300 296 288 280 237 251 222 293
226 235 268 264 284 286 297 21 315 328 320 215 310 201 69 42 38 71 39 15 351 336 342 342 333 337 334 313 306 313 317 315 315 307 296 295 302 305 311 290 317 20 314 310
201 212 234 261 272 258 66 3 356 342 189 350 21 61 52 21 280 109 82 306 357 351 339 320 351 328 315 311 321 322 307 301 301 303 312 315 304 296 304 311 305 202 229 259
259 218 222 248 254 273 261 303 346 260 80 19 20 21 7 351 349 326 351 356 339 327 339 330 330 308 318 312 298 285 288 297 295 305 309 307 308 312 290 291 287 287 262 276
216 233 222 231 241 256 90 202 288 97 49 345 352 351 356 343 320 314 321 325 330 309 321 309 316 329 315 301 299 307 284 277 281 277 285 292 300 301 297 311 302 289 276 259
295 253 312 20 309 333 345 138 181 135 28 353 349 5 354 324 313 320 322 325 283 310 292 327 323 309 298 303 287 280 281 283 280 284 284 275 281 285 286 284 290 296 294 261
251 9 319 125 237 264 258 246 250 150 266 341 37 348 335 326 314 310 303 314 317 299 305 317 306 298 297 303 295 295 281 304 286 285 297 290 281 279 278 273 274 274 275 275
273 132 265 317 309 297 76 51 27 31 6 24 24 329 326 323 307 302 316 317 317 313 319 293 297 290 302 303 307 296 295 288 292 299 296 294 286 285 286 277 273 271 266 275
293 310 299 291 325 337 104 14 341 342 39 3 348 340 329 320 309 316 328 321 315 322 316 316 307 309 298 303 292 291 298 284 294 292 296 307 308 300 289 284 287 239 55 34